Location: Trois-Rivi�res
(46.3500°N, 72.5500°W)
Time: 16:51:52
(UTC-04:00)

Envisat - Pass Details

Date: 13 October 2017
Orbit: 764 x 766 km, 98.2° (Epoch: 17 October)

Event Time Altitude Azimuth Distance (km) Brightness Sun altitude
Exits shadow 19:16:46 18° 89° (E) 1,801 4.3 -12.8°
Maximum altitude 19:18:32 22° 61° (ENE) 1,636 4.2 -13.2°
Drops below altitude 10° 19:22:21 10° 13° (NNE) 2,312 5.4 -13.8°
Sets 19:25:07 0° 358° (N) 3,243 6.3 -14.3°
